CW4427 Weather Reports


Display with metric or nautical units.
time (UTC)temp
F
wind
direction
speed
MPH
gust
MPH
rain 1hr
in
rain 24hr
in
rain mn
in
humidity
%
barometer
mb
20220627122043 72 24 5.0 9.0 0.00 0.01 0.00 74 1022.5
20220627121043 72 40 3.0 9.0 0.00 0.01 0.00 76 1022.3
20220627120042 72 23 6.0 7.0 0.00 0.01 0.00 78 1022.3
20220627115043 71 355 2.0 8.0 0.00 0.01 0.00 79 1022.2
20220627114043 71 40 2.0 6.0 0.00 0.01 0.00 81 1022.2
20220627113043 71 34 5.0 5.0 0.00 0.01 0.00 81 1022.0
20220627112042 71 16 4.0 5.0 0.00 0.01 0.00 80 1022.0
20220627111043 71 38 0.0 5.0 0.00 0.01 0.00 81 1021.8
20220627110043 71 46 5.0 9.0 0.00 0.01 0.00 81 1021.6
20220627105042 71 30 4.0 7.0 0.00 0.01 0.00 82 1021.5
20220627104043 71 13 2.0 5.0 0.00 0.01 0.00 83 1021.4
20220627103042 71 313 0.0 4.0 0.00 0.01 0.00 84 1021.1
20220627102042 71 20 2.0 4.0 0.00 0.01 0.00 84 1021.0
20220627101042 71 17 0.0 4.0 0.00 0.01 0.00 85 1020.8
20220627100043 71 48 3.0 7.0 0.00 0.01 0.00 85 1020.5
20220627095042 71 317 2.0 6.0 0.00 0.01 0.00 85 1020.4
20220627094042 71 45 2.0 3.0 0.00 0.01 0.00 85 1020.4
20220627093042 71 355 1.0 5.0 0.00 0.01 0.00 85 1020.3
20220627092042 71 35 0.0 6.0 0.00 0.01 0.00 86 1020.3
20220627091042 71 22 2.0 6.0 0.00 0.01 0.00 86 1020.2
20220627090042 71 19 1.0 4.0 0.00 0.01 0.00 87 1020.3
20220627085042 71 40 0.0 5.0 0.00 0.01 0.00 87 1020.3
20220627084042 71 325 1.0 5.0 0.00 0.01 0.00 87 1020.2
20220627083042 71 5 0.0 4.0 0.00 0.01 0.00 87 1020.1
20220627082042 71 32 0.0 4.0 0.00 0.01 0.00 87 1020.2
20220627081042 71 355 1.0 3.0 0.00 0.01 0.00 87 1020.2
20220627080043 71 344 0.0 2.0 0.00 0.01 0.00 87 1020.2
20220627075042 71 348 1.0 4.0 0.00 0.01 0.00 87 1020.2
20220627074041 72 34 1.0 3.0 0.00 0.01 0.00 87 1020.2
20220627073042 72 19 1.0 4.0 0.00 0.01 0.00 87 1020.2
20220627072041 72 38 0.0 4.0 0.00 0.01 0.00 86 1020.4
20220627071041 72 34 2.0 5.0 0.00 0.01 0.00 86 1020.5
20220627070041 73 27 2.0 3.0 0.00 0.01 0.00 86 1020.5
20220627065041 73 77 1.0 3.0 0.00 0.01 0.00 87 1020.3
20220627064042 73 14 2.0 4.0 0.00 0.01 0.00 87 1020.5
20220627063041 73 5 2.0 7.0 0.00 0.01 0.00 87 1020.5
20220627062042 73 24 5.0 6.0 0.00 0.01 0.00 88 1020.5
20220627061041 73 14 3.0 4.0 0.00 0.01 0.00 89 1020.6
20220627060041 74 25 2.0 5.0 0.00 0.01 0.00 90 1020.8
20220627055041 74 26 3.0 5.0 0.00 0.01 0.00 90 1020.7
20220627054041 74 20 1.0 5.0 0.00 0.01 0.00 89 1020.7
20220627053041 74 341 1.0 7.0 0.00 0.01 0.00 88 1020.7
20220627052041 74 41 0.0 9.0 0.00 0.01 0.00 88 1020.6
20220627051042 75 60 4.0 9.0 0.00 0.01 0.00 88 1020.5
20220627050041 75 21 4.0 9.0 0.00 0.01 0.00 88 1020.6
20220627045042 75 344 1.0 5.0 0.00 0.01 0.01 89 1020.8
20220627044041 75 5 2.0 4.0 0.00 0.01 0.01 89 1020.8
20220627043041 75 9 1.0 6.0 0.00 0.01 0.01 89 1020.8
20220627042041 75 11 2.0 5.0 0.00 0.01 0.01 90 1020.7
20220627041041 74 43 1.0 3.0 0.00 0.01 0.01 91 1020.9
20220627040041 74 88 1.0 3.0 0.00 0.01 0.01 91 1020.8
20220627035041 74 21 1.0 4.0 0.00 0.01 0.01 91 1020.6
20220627034041 74 10 3.0 4.0 0.00 0.01 0.01 92 1020.5
20220627033041 74 30 1.0 4.0 0.00 0.01 0.01 92 1020.4
20220627032040 73 9 1.0 4.0 0.00 0.01 0.01 92 1020.3
20220627031042 73 32 0.0 2.0 0.00 0.01 0.01 92 1020.3
20220627030040 73 325 0.0 2.0 0.00 0.01 0.01 92 1020.0
20220627025041 73 42 0.0 3.0 0.00 0.01 0.01 91 1019.7
20220627024040 73 32 1.0 2.0 0.00 0.01 0.01 91 1019.6
20220627023041 73 333 0.0 3.0 0.00 0.01 0.01 91 1019.5
20220627022041 73 64 0.0 0.0 0.00 0.01 0.01 91 1019.4
20220627021041 74 109 0.0 0.0 0.00 0.01 0.01 90 1019.4
20220627020040 74 109 0.0 0.0 0.00 0.01 0.01 90 1019.5
20220627015040 74 109 0.0 0.0 0.00 0.01 0.01 90 1019.3
20220627014040 74 109 0.0 1.0 0.00 0.01 0.01 90 1019.2
20220627013040 74 109 0.0 0.0 0.00 0.01 0.01 90 1019.1
20220627012040 74 109 0.0 0.0 0.00 0.01 0.01 89 1019.1
20220627011040 74 108 0.0 1.0 0.00 0.01 0.01 89 1019.1
20220627010040 74 104 1.0 2.0 0.00 0.01 0.01 88 1019.0
20220627005040 75 128 0.0 2.0 0.00 0.01 0.01 88 1018.9
20220627004040 75 5 1.0 3.0 0.00 0.01 0.01 87 1018.8
20220627003040 75 132 0.0 4.0 0.00 0.01 0.01 87 1018.7
20220627002039 75 55 1.0 2.0 0.00 0.01 0.01 86 1018.7
20220627001039 75 290 0.0 3.0 0.00 0.01 0.01 86 1018.7
20220627000040 75 326 1.0 3.0 0.00 0.01 0.01 86 1018.7
20220626235040 75 30 2.0 3.0 0.00 0.01 0.01 85 1018.7
20220626234040 76 225 0.0 3.0 0.00 0.01 0.01 85 1018.6
20220626233039 76 221 1.0 2.0 0.00 0.01 0.01 85 1018.6
20220626232040 75 214 0.0 3.0 0.00 0.01 0.01 86 1018.5
20220626231039 75 280 3.0 3.0 0.00 0.01 0.01 87 1018.5
20220626230039 75 344 0.0 0.0 0.00 0.01 0.01 86 1018.0
20220626225039 75 113 0.0 2.0 0.00 0.01 0.01 86 1017.2
20220626224039 75 89 1.0 2.0 0.00 0.01 0.01 85 1016.8
20220626223039 75 132 2.0 4.0 0.01 0.01 0.01 86 1016.8
20220626222039 75 30 3.0 5.0 0.01 0.01 0.01 85 1017.0
20220626221039 75 5 0.0 4.0 0.01 0.01 0.01 86 1017.4
20220626220039 76 348 1.0 2.0 0.01 0.01 0.01 87 1017.6
20220626215039 75 17 1.0 2.0 0.01 0.01 0.01 86 1017.4
20220626214054 75 17 0.0 2.0 0.01 0.01 0.01 86 1017.0
20220626213053 75 305 1.0 5.0 0.00 0.00 0.00 86 1017.0
20220626212054 75 34 2.0 4.0 0.00 0.00 0.00 86 1016.7
20220626211053 75 12 4.0 4.0 0.00 0.00 0.00 87 1016.9
20220626210053 75 12 2.0 5.0 0.00 0.00 0.00 87 1017.3
20220626205053 75 15 0.0 5.0 0.00 0.00 0.00 87 1017.5
20220626204054 76 330 2.0 4.0 0.00 0.00 0.00 86 1017.2
20220626203054 76 15 2.0 4.0 0.00 0.00 0.00 87 1017.0
20220626202054 76 126 0.0 3.0 0.00 0.00 0.00 87 1017.2
20220626201053 76 254 2.0 3.0 0.00 0.00 0.00 87 1017.5
20220626200054 76 74 1.0 3.0 0.00 0.00 0.00 87 1017.2
20220626195053 77 243 1.0 5.0 0.00 0.00 0.00 85 1017.5
20220626194053 77 42 2.0 6.0 0.00 0.00 0.00 82 1017.3
20220626193054 77 126 2.0 7.0 0.00 0.00 0.00 81 1017.8
20220626192053 77 108 3.0 4.0 0.00 0.00 0.00 81 1017.7
20220626191054 78 257 0.0 3.0 0.00 0.00 0.00 78 1018.3
20220626190054 78 92 2.0 3.0 0.00 0.00 0.00 77 1018.6
20220626185054 78 270 2.0 4.0 0.00 0.00 0.00 78 1019.1
20220626184054 78 347 0.0 8.0 0.00 0.00 0.00 78 1019.4
20220626183053 78 47 3.0 8.0 0.00 0.00 0.00 78 1019.7
20220626182053 79 291 2.0 8.0 0.00 0.00 0.00 79 1019.6
20220626181054 79 349 3.0 8.0 0.00 0.00 0.00 79 1019.2
20220626180053 79 360 8.0 10.0 0.00 0.00 0.00 80 1019.5
20220626175054 79 44 6.0 20.0 0.00 0.00 0.00 80 1019.4
20220626174053 81 82 3.0 14.0 0.00 0.00 0.00 75 1019.3
20220626173054 82 351 6.0 11.0 0.00 0.00 0.00 71 1019.2
20220626172054 84 23 6.0 15.0 0.00 0.00 0.00 67 1018.6
20220626171054 87 339 2.0 4.0 0.00 0.00 0.00 69 1018.1
20220626170054 89 22 2.0 4.0 0.00 0.00 0.00 64 1018.0
20220626165053 88 15 2.0 5.0 0.00 0.00 0.00 64 1017.8
20220626164053 89 16 2.0 4.0 0.00 0.00 0.00 63 1017.7
20220626163053 87 103 1.0 3.0 0.00 0.00 0.00 70 1017.9
20220626162054 88 5 0.0 2.0 0.00 0.00 0.00 62 1018.0
20220626161054 89 316 1.0 5.0 0.00 0.00 0.00 62 1018.1
20220626160053 89 135 3.0 4.0 0.00 0.00 0.00 61 1017.9
20220626155054 89 196 2.0 6.0 0.00 0.00 0.00 68 1017.8
20220626154054 89 211 2.0 6.0 0.00 0.00 0.00 62 1017.9
20220626153053 89 80 2.0 5.0 0.00 0.00 0.00 64 1017.8
20220626152053 87 180 3.0 9.0 0.00 0.00 0.00 65 1017.7
20220626151053 88 188 3.0 8.0 0.00 0.00 0.00 65 1017.6
20220626150054 88 192 7.0 7.0 0.00 0.00 0.00 67 1017.7
20220626145053 86 198 2.0 5.0 0.00 0.00 0.00 70 1017.8
20220626144054 84 132 0.0 3.0 0.00 0.00 0.00 74 1017.9
20220626143054 85 110 1.0 4.0 0.00 0.00 0.00 70 1018.0
20220626142053 85 167 0.0 3.0 0.00 0.00 0.00 70 1018.1
20220626141054 84 112 2.0 3.0 0.00 0.00 0.00 73 1018.2
20220626140055 84 194 1.0 4.0 0.00 0.00 0.00 71 1018.2
20220626135054 83 95 0.0 2.0 0.00 0.00 0.00 76 1018.1
20220626134053 84 109 1.0 3.0 0.00 0.00 0.00 70 1018.0
20220626133054 84 237 1.0 3.0 0.00 0.00 0.00 71 1017.9
20220626132054 83 214 1.0 3.0 0.00 0.00 0.00 72 1017.8
20220626131054 82 180 1.0 3.0 0.00 0.00 0.00 74 1017.8
20220626130054 81 177 1.0 6.0 0.00 0.00 0.00 75 1017.5
20220626125053 81 105 0.0 5.0 0.00 0.00 0.00 75 1017.5
20220626124053 81 206 2.0 3.0 0.00 0.00 0.00 74 1017.4
20220626123053 80 213 1.0 4.0 0.00 0.00 0.00 76 1017.3